Location: Staunton
(38.1490°N, 79.0720°W)
Time: 17:46:30
(UTC-04:00)

ISS - Pass Details

Date: 30 March 2017
Orbit: 399 x 409 km, 51.6° (Epoch: 26 March)

Event Time Altitude Azimuth Distance (km) Brightness Sun altitude
Rises 20:57:49 0° 265° (W) 2,303 1.3 -16.1°
Reaches altitude 10° 21:00:15 10° 284° (WNW) 1,449 0.3 -16.6°
Maximum altitude 21:02:44 20° 334° (NNW) 999 -1.3 -17.1°
Drops below altitude 10° 21:05:14 10° 24° (NNE) 1,457 -1.1 -17.5°
Enters shadow 21:05:56 - 31° (NNE) 1,680 -0.8 -17.6°
